SCP
0 -0 0 0 0 0 0 0 0 0 0 0 0 0 0 0 0 0 0 0 0 0 0 0 0 0 0 0 0 0 0 0 0 0 0 0 0 0 0 0 0 0 0 0
-0 0 0 0 0 0 0 0 0 0 0 0 0 0 0 0 0 0 0 0 0 0 0 0 0 0 0 0 0 0 0 0 0 0 0 0 0 0 0 0 0 0 0 0
-0 -0 -0 0 0 0 0 0 0 0 0 0 0 0 0 0 0 0 0 0 0 0 0 0 0 0 0 0 0 0 0 0 0 0 0 0 0 0 0 0 0 0 0 0
0 0 0 0 0 0 0 0 0 0 0 0 0 0 0 0 0 0 0 0 0 0 0 0 0 0 0 0 0 0 0 0 0 0 0 0 0 0 0 0 0 0 0 0
0 0 0 0 0 0 0 0 0 0 0 0 0 0 0 0 0 0 0 0 0 0 0 0 0 0 0 0 0 0 0 0 0 0 0 0 0 0 0 0 0 0 0 0
0 0 0 0 0 0 0 0 0 0 0 0 0 0 0 0 0 0 0 0 0 0 0 0 0 0 0 0 0 0 0 0 0 0 0 0 0 0 0 0 0 0 0 0
0 0 0 0 0 0 0 0 0 0 0 0 0 0 0 0 0 0 0 0 0 0 0 0 0 0 0 0 0 0 0 0 0 0 0 0 0 0 0 0 0 0 0 0
0 0 0 0 0 0 0 0 0 0 0 0 0 0 0 0 0 0 0 0 0 0 0 0 0 0 0 0 0 0 0 0 0 0 0 0 0 0 0 0 0 0 0 0
0 0 0 0 0 0 0 0 0 0 0 0 0 0 0 0 0 0 0 0 0 0 0 0 0 0 0 0 0 0 0 0 0 0 0 0 0 0 0 0 0 0 0 0
0 0 0 0 0 0 0 0 0 0 0 0 0 0 0 0 0 0 0 0 0 0 0 0 0 0 0 0 0 0 0 0 0 0 0 0 0 0 0 0 0 0 0 0
0 0 0 0 0 0 0 0 0 0 0 0 0 0 0 0 0 0 0 0 0 0 0 0 0 0 0 0 0 0 0 0 0 0 0 0 0 0 0 0 0 0 0 0
0 0 0 0 0 0 0 0 0 0 0 0 0 0 0 0 0 0 0 0 0 0 0 0 0 0 0 0 0 0 0 0 0 0 0 0 0 0 0 0 0 0 0 0
0 0 0 0 0 0 0 0 0 0 0 0 0 0 0 0 0 0 0 0 0 0 0 0 0 0 0 0 0 0 0 0 0 0 0 0 0 0 0 0 0 0 0 0
0 0 0 0 0 0 0 0 0 0 0 0 0 0 0 0 0 0 0 0 0 0 0 0 0 0 0 0 0 0 0 0 0 0 0 0 0 0 0 0 0 0 0 0
0 0 0 0 0 0 0 0 0 0 0 0 0 0 0 0 0 0 0 0 0 0 0 0 0 0 0 0 0 0 0 0 0 0 0 0 0 0 0 0 0 0 0 0
0 0 0 0 0 0 0 0 0 0 0 0 0 0 0 0 0 0 0 0 0 0 0 0 0 0 0 0 0 0 0 0 0 0 0 0 0 0 0 0 0 0 0 0
0 0 0 0 0 0 0 0 0 0 0 0 0 0 0 0 0 0 0 0 0 0 0 0 0 0 0 0 0 0 0 0 0 0 0 0 0 0 0 0 0 0 0 0
0 0 0 0 0 0 0 0 0 0 0 0 0 0 0 0 0 0 0 0 0 0 0 0 0 0 0 0 0 0 0 0 0 0 0 0 0 0 0 0 0 0 0 0
0 0 0 0 0 0 0 0 0 0 0 0 0 0 0 0 0 0 0 0 0 0 0 0 0 0 0 0 0 0 0 0 0 0 0 0 0 0 0 0 0 0 0 0
0 0 0 0 0 0 0 0 0 0 0 0 0 0 0 0 0 0 0 0 0 0 0 0 0 0 0 0 0 0 0 0 0 0 0 0 0 0 0 0 0 0 0 0
0 0 0 0 0 0 0 0 0 0 0 0 0 0 0 0 0 0 0 0 0 0 0 0 0 0 0 0 0 0 0 0 0 0 0 0 0 0 0 0 0 0 0 0
0 0 0 0 0 0 0 0 0 0 0 0 0 0 0 0 0 0 0 0 0 0 0 0 0 0 0 0 0 0 0 0 0 0 0 0 0 0 0 0 0 0 0 0
0 0 0 0 0 0 0 0 0 0 0 0 0 0 0 0 0 0 0 0 0 0 0 0 0 0 0 0 0 0 0 0 0 0 0 0 0 0 0 0 0 0 0 0
0 0 0 0 0 0 0 0 0 0 0 0 0 0 0 0 0 0 0 0 0 0 0 0 0 0 0 0 0 0 0 0 0 0 0 0 0 0 0 0 0 0 0 0
0 0 0 0 0 0 0 0 0 0 0 0 0 0 0 0 0 0 0 0 0 0 0 0 0 0 0 0 0 0 0 0 0 0 0 0 0 0 0 0 0 0 0 0
0 0 0 0 0 0 0 0 0 0 0 0 0 0 0 0 0 0 0 0 0 0 0 0 0 0 0 0 0 -0 -0 -0 -0 -0 0 0 0 0 0 0 0 0 0 0
0 0 0 0 0 0 0 0 0 0 0 0 0 0 0 0 0 0 0 0 0 0 0 0 0 0 0 0 0 0 0 0 0 -0 0 0 0 0 0 0 0 0 0 0
Wind_Speed_500mb
9 22 11 7 17 20 49 37 9 78 116 25 14 22 15 10 11 2 8 1 7 25 35 27 25 17 25 30 31 33 10 9 9 15 2 7 17 14 16 10 8 3 5 18
8 10 15 8 8 27 22 18 15 71 102 15 28 23 11 14 21 15 13 9 5 4 25 15 13 17 2 20 18 25 16 7 7 5 4 5 7 4 7 10 6 11 11 27
5 6 11 13 2 21 16 13 8 13 51 19 37 37 15 17 13 11 6 11 9 13 18 5 24 11 4 5 14 20 31 7 17 25 6 19 11 13 14 12 7 41 20 48
13 10 5 9 7 11 10 10 3 9 19 9 37 25 13 34 14 10 21 4 15 20 14 7 7 12 8 7 7 10 12 12 9 11 8 6 8 13 26 35 41 14 44 35
17 14 13 3 4 13 10 5 2 10 18 31 30 19 22 31 15 19 19 17 17 14 12 12 21 16 11 6 2 10 3 3 2 8 6 6 4 20 26 31 36 26 39 35
15 19 14 15 4 12 8 11 13 12 7 15 19 14 25 28 24 6 17 20 17 21 17 40 35 41 27 13 9 7 8 10 6 4 14 9 13 42 19 18 23 20 31 55
20 17 20 18 15 10 9 18 14 9 5 11 9 23 17 33 21 12 16 25 14 26 47 42 32 40 29 18 11 14 9 9 6 5 10 8 14 16 22 34 34 33 37 44
22 19 20 19 21 19 15 19 11 7 6 12 16 24 13 32 22 13 20 14 22 48 14 8 9 6 10 5 8 9 7 8 7 7 10 15 33 8 13 16 32 22 37 46
28 27 22 24 18 21 19 17 19 14 10 2 23 16 21 10 7 7 8 29 44 16 5 5 10 12 11 12 7 4 12 7 6 7 8 16 5 3 10 10 23 7 23 17
26 32 26 25 22 20 21 18 17 12 15 16 24 9 23 22 12 9 8 10 9 13 4 5 6 6 5 13 17 11 9 8 25 18 10 16 8 9 8 13 8 4 20 23
26 32 30 25 24 24 22 21 18 14 12 13 17 16 19 25 20 10 21 13 3 4 6 6 7 4 9 7 15 19 21 18 11 11 8 24 14 3 18 7 12 12 12 19
28 30 39 31 27 24 21 25 22 18 14 16 23 22 26 17 12 27 25 4 12 16 5 4 5 6 5 8 8 3 10 12 12 18 14 4 24 4 4 8 12 13 13 16
30 32 36 41 30 25 20 22 28 24 16 17 17 15 25 20 20 20 16 10 12 11 9 6 4 6 5 7 8 7 5 5 5 5 10 9 11 11 15 24 31 24 18 17
33 33 31 37 39 29 21 25 26 27 17 6 5 17 22 20 19 19 13 26 20 27 17 8 5 4 2 1 3 4 6 13 10 8 8 16 10 5 14 22 27 34 36 26
33 32 35 34 38 31 26 20 29 30 10 6 12 13 24 20 29 21 14 17 30 18 8 5 4 8 6 3 4 6 14 12 9 7 5 6 4 12 23 25 27 29 35 42
36 34 37 38 37 40 32 10 18 37 21 11 5 9 9 17 25 23 26 21 14 10 10 5 5 7 8 5 6 15 31 29 12 6 2 14 26 34 37 26 23 31 33 34
40 38 37 41 44 41 26 12 20 39 37 9 5 5 9 25 25 16 18 26 14 11 9 7 11 8 14 2 11 8 34 33 26 27 28 23 32 19 16 23 35 43 43 39
38 41 41 38 37 41 29 19 41 45 21 14 5 3 6 13 11 10 16 16 16 17 8 4 7 12 5 7 44 22 44 39 30 27 34 41 41 47 58 60 60 55 48 44
37 37 36 44 38 24 28 31 39 39 10 12 6 8 6 18 10 12 13 14 4 16 5 8 17 5 11 27 26 24 28 35 41 44 48 55 60 60 55 52 50 52 51 49
45 48 22 9 26 38 52 32 20 12 7 8 5 13 5 15 12 7 13 10 6 6 12 22 7 12 63 77 7 13 13 19 37 48 55 57 63 59 56 56 55 51 49 47
40 12 8 42 68 35 10 12 11 9 5 13 9 14 9 14 6 6 6 4 3 3 8 12 6 9 28 39 50 55 60 53 59 67 71 69 67 66 62 57 55 52 49 49
30 27 41 28 10 7 6 6 4 3 9 6 6 8 14 12 8 7 3 3 3 7 1 5 6 5 11 11 4 11 29 44 53 51 58 63 67 66 65 64 65 63 57 53
46 13 9 8 6 7 9 7 4 6 8 16 14 5 12 7 8 7 6 5 7 3 4 8 8 14 12 12 9 5 13 22 34 41 41 46 55 60 66 75 76 72 65 58
10 6 7 3 6 3 3 5 8 8 11 37 34 14 8 7 5 6 9 8 7 1 3 11 4 8 15 15 18 24 30 34 38 42 41 39 43 51 55 60 62 64 66 60
8 7 6 3 7 11 8 8 8 9 27 34 17 10 7 0 6 3 7 7 7 11 10 7 8 5 8 15 22 27 30 33 30 31 35 40 43 44 44 47 48 49 50 52
7 9 9 6 5 3 6 8 7 11 18 18 10 6 7 4 8 6 12 12 11 7 5 10 8 11 22 28 28 33 36 40 42 38 35 35 39 42 45 41 40 44 46 48
7 5 12 11 15 11 7 7 12 19 14 3 5 9 15 3 5 4 8 10 7 8 5 7 16 23 29 31 32 34 35 37 38 41 42 38 37 36 39 40 38 39 41 44
Wind_Direction_500mb
20 21 47 323 153 143 148 134 115 152 161 152 187 194 175 148 172 66 82 59 126 178 168 181 183 213 184 189 164 192 175 113 155 200 205 231 223 207 179 151 252 264 136 260
16 13 35 178 159 140 96 107 99 158 158 152 176 160 142 187 161 175 172 141 146 177 164 163 191 170 360 144 151 160 169 199 92 153 224 104 218 230 243 275 46 206 155 258
146 349 14 41 108 132 100 112 126 139 184 145 160 162 171 154 169 166 183 111 112 119 148 23 183 127 21 67 153 126 165 180 194 204 136 151 189 186 214 200 182 233 229 258
177 171 298 45 137 156 56 60 102 152 171 167 162 156 125 144 154 182 149 189 187 150 156 125 150 106 114 41 115 153 153 192 205 255 336 83 167 180 201 215 229 191 244 249
181 169 180 202 138 172 68 17 155 64 133 138 148 165 176 162 145 151 178 161 166 123 138 176 167 132 149 144 113 169 137 187 142 40 92 313 296 235 213 223 238 243 260 268
187 180 168 185 188 145 108 107 90 93 90 145 150 159 149 172 139 324 174 168 121 104 102 95 77 79 81 103 131 139 104 130 86 228 145 89 308 243 192 226 237 222 238 247
204 184 179 177 183 129 140 124 115 90 96 119 119 137 131 151 149 136 163 154 103 122 124 100 75 60 55 61 56 63 110 107 92 163 74 192 244 144 207 229 238 237 257 264
202 198 183 186 181 161 133 133 95 89 95 112 109 117 107 101 114 101 87 70 125 141 100 88 84 45 29 357 230 150 134 112 121 151 187 310 293 203 176 171 249 242 240 257
198 192 184 184 179 180 161 128 101 112 111 325 130 130 142 121 109 66 75 122 143 124 87 102 157 175 162 181 154 52 151 111 136 156 192 213 282 342 349 122 254 357 37 28
202 193 185 183 183 184 174 148 113 93 103 91 138 93 153 141 137 92 120 130 100 108 121 126 160 191 148 162 154 153 151 165 207 210 238 277 189 251 114 140 225 92 43 22
200 198 193 183 185 185 184 149 164 119 82 106 116 120 132 128 127 141 158 105 55 87 133 135 185 132 214 113 157 167 170 174 189 201 225 257 168 126 165 171 125 93 50 29
191 191 189 182 174 168 177 159 155 144 100 135 137 137 166 144 104 134 161 87 134 166 134 179 114 131 150 169 196 331 169 181 171 187 209 149 173 101 312 251 264 228 261 291
191 186 189 184 181 183 184 162 162 153 103 99 143 154 155 142 160 151 128 151 150 131 99 95 71 133 130 159 239 115 286 166 164 93 234 199 230 269 273 277 265 278 273 279
190 179 177 190 187 182 184 182 170 166 126 109 167 174 188 178 152 147 126 147 141 147 114 93 134 156 65 20 163 148 184 135 171 267 276 288 306 356 323 294 283 269 279 282
181 185 181 174 178 176 170 164 175 167 146 120 115 161 196 189 203 196 166 145 155 133 95 85 187 124 107 32 40 252 188 178 171 213 152 132 87 9 349 336 322 304 288 282
183 183 184 176 173 183 168 114 185 183 141 104 109 128 142 181 191 184 183 169 158 140 130 155 171 157 162 146 225 226 209 218 227 163 272 306 299 302 301 307 308 307 302 293
185 183 178 176 181 176 159 178 175 175 188 110 99 104 125 132 138 133 168 183 184 167 154 196 152 183 179 176 241 150 209 220 229 251 274 289 283 269 273 294 304 309 302 288
177 179 173 177 176 172 142 95 150 150 124 140 122 108 107 150 130 122 160 161 157 187 179 188 148 119 145 250 242 247 245 252 260 263 272 275 272 275 283 288 289 287 280 277
174 171 167 170 174 176 167 143 157 163 146 132 138 135 174 164 123 117 161 159 140 174 194 187 153 181 218 235 245 229 233 237 251 259 261 264 268 274 275 273 273 273 273 268
166 161 150 148 145 148 145 146 152 159 184 133 140 128 132 166 146 139 131 177 203 184 210 168 186 238 244 246 240 256 235 243 248 246 250 255 260 264 273 280 281 279 276 272
145 128 101 133 141 139 157 146 148 133 145 174 162 147 137 169 129 158 192 168 191 154 239 154 218 255 256 264 259 263 264 260 259 261 264 267 268 274 275 277 281 281 276 276
140 129 134 135 109 91 133 123 78 111 182 126 124 127 108 126 142 106 143 147 67 242 170 124 252 278 71 88 180 246 240 240 245 254 260 264 268 273 276 279 281 280 281 276
124 121 112 142 129 149 168 126 326 108 154 166 153 106 123 123 145 99 105 130 230 122 133 223 230 121 66 11 341 310 285 277 276 279 279 279 278 276 274 274 273 275 275 275
79 70 88 66 123 115 131 140 149 115 154 155 141 115 131 134 83 152 120 225 82 137 244 230 242 28 356 349 347 333 320 312 303 299 299 299 293 287 282 277 273 271 268 267
96 118 116 99 126 70 54 75 106 122 136 147 115 78 113 221 99 160 88 46 238 195 218 220 145 68 14 351 343 335 332 329 332 324 315 305 294 287 287 281 273 267 260 255
84 70 95 93 65 38 65 74 77 135 139 128 103 118 79 217 154 98 209 142 205 242 207 167 223 291 307 316 325 328 326 321 320 323 318 306 299 295 288 278 268 261 253 248
66 59 102 95 75 90 117 118 146 150 151 137 114 112 201 92 93 222 185 192 209 132 171 314 330 330 329 328 327 323 324 325 322 315 311 309 299 293 289 281 274 265 256 249
Wind_Speed_850mb
9 22 11 7 17 20 49 37 9 78 116 25 14 22 15 10 11 2 8 1 7 25 35 27 25 17 25 30 31 33 10 9 9 15 2 7 17 14 16 10 8 3 5 18
8 10 15 8 8 27 22 18 15 71 102 15 28 23 11 14 21 15 13 9 5 4 25 15 13 17 2 20 18 25 16 7 7 5 4 5 7 4 7 10 6 11 11 27
5 6 11 13 2 21 16 13 8 13 51 19 37 37 15 17 13 11 6 11 9 13 18 5 24 11 4 5 14 20 31 7 17 25 6 19 11 13 14 12 7 41 20 48
13 10 5 9 7 11 10 10 3 9 19 9 37 25 13 34 14 10 21 4 15 20 14 7 7 12 8 7 7 10 12 12 9 11 8 6 8 13 26 35 41 14 44 35
17 14 13 3 4 13 10 5 2 10 18 31 30 19 22 31 15 19 19 17 17 14 12 12 21 16 11 6 2 10 3 3 2 8 6 6 4 20 26 31 36 26 39 35
15 19 14 15 4 12 8 11 13 12 7 15 19 14 25 28 24 6 17 20 17 21 17 40 35 41 27 13 9 7 8 10 6 4 14 9 13 42 19 18 23 20 31 55
20 17 20 18 15 10 9 18 14 9 5 11 9 23 17 33 21 12 16 25 14 26 47 42 32 40 29 18 11 14 9 9 6 5 10 8 14 16 22 34 34 33 37 44
22 19 20 19 21 19 15 19 11 7 6 12 16 24 13 32 22 13 20 14 22 48 14 8 9 6 10 5 8 9 7 8 7 7 10 15 33 8 13 16 32 22 37 46
28 27 22 24 18 21 19 17 19 14 10 2 23 16 21 10 7 7 8 29 44 16 5 5 10 12 11 12 7 4 12 7 6 7 8 16 5 3 10 10 23 7 23 17
26 32 26 25 22 20 21 18 17 12 15 16 24 9 23 22 12 9 8 10 9 13 4 5 6 6 5 13 17 11 9 8 25 18 10 16 8 9 8 13 8 4 20 23
26 32 30 25 24 24 22 21 18 14 12 13 17 16 19 25 20 10 21 13 3 4 6 6 7 4 9 7 15 19 21 18 11 11 8 24 14 3 18 7 12 12 12 19
28 30 39 31 27 24 21 25 22 18 14 16 23 22 26 17 12 27 25 4 12 16 5 4 5 6 5 8 8 3 10 12 12 18 14 4 24 4 4 8 12 13 13 16
30 32 36 41 30 25 20 22 28 24 16 17 17 15 25 20 20 20 16 10 12 11 9 6 4 6 5 7 8 7 5 5 5 5 10 9 11 11 15 24 31 24 18 17
33 33 31 37 39 29 21 25 26 27 17 6 5 17 22 20 19 19 13 26 20 27 17 8 5 4 2 1 3 4 6 13 10 8 8 16 10 5 14 22 27 34 36 26
33 32 35 34 38 31 26 20 29 30 10 6 12 13 24 20 29 21 14 17 30 18 8 5 4 8 6 3 4 6 14 12 9 7 5 6 4 12 23 25 27 29 35 42
36 34 37 38 37 40 32 10 18 37 21 11 5 9 9 17 25 23 26 21 14 10 10 5 5 7 8 5 6 15 31 29 12 6 2 14 26 34 37 26 23 31 33 34
40 38 37 41 44 41 26 12 20 39 37 9 5 5 9 25 25 16 18 26 14 11 9 7 11 8 14 2 11 8 34 33 26 27 28 23 32 19 16 23 35 43 43 39
38 41 41 38 37 41 29 19 41 45 21 14 5 3 6 13 11 10 16 16 16 17 8 4 7 12 5 7 44 22 44 39 30 27 34 41 41 47 58 60 60 55 48 44
37 37 36 44 38 24 28 31 39 39 10 12 6 8 6 18 10 12 13 14 4 16 5 8 17 5 11 27 26 24 28 35 41 44 48 55 60 60 55 52 50 52 51 49
45 48 22 9 26 38 52 32 20 12 7 8 5 13 5 15 12 7 13 10 6 6 12 22 7 12 63 77 7 13 13 19 37 48 55 57 63 59 56 56 55 51 49 47
40 12 8 42 68 35 10 12 11 9 5 13 9 14 9 14 6 6 6 4 3 3 8 12 6 9 28 39 50 55 60 53 59 67 71 69 67 66 62 57 55 52 49 49
30 27 41 28 10 7 6 6 4 3 9 6 6 8 14 12 8 7 3 3 3 7 1 5 6 5 11 11 4 11 29 44 53 51 58 63 67 66 65 64 65 63 57 53
46 13 9 8 6 7 9 7 4 6 8 16 14 5 12 7 8 7 6 5 7 3 4 8 8 14 12 12 9 5 13 22 34 41 41 46 55 60 66 75 76 72 65 58
10 6 7 3 6 3 3 5 8 8 11 37 34 14 8 7 5 6 9 8 7 1 3 11 4 8 15 15 18 24 30 34 38 42 41 39 43 51 55 60 62 64 66 60
8 7 6 3 7 11 8 8 8 9 27 34 17 10 7 0 6 3 7 7 7 11 10 7 8 5 8 15 22 27 30 33 30 31 35 40 43 44 44 47 48 49 50 52
7 9 9 6 5 3 6 8 7 11 18 18 10 6 7 4 8 6 12 12 11 7 5 10 8 11 22 28 28 33 36 40 42 38 35 35 39 42 45 41 40 44 46 48
7 5 12 11 15 11 7 7 12 19 14 3 5 9 15 3 5 4 8 10 7 8 5 7 16 23 29 31 32 34 35 37 38 41 42 38 37 36 39 40 38 39 41 44
Wind_Direction_850mb
20 21 47 323 153 143 148 134 115 152 161 152 187 194 175 148 172 66 82 59 126 178 168 181 183 213 184 189 164 192 175 113 155 200 205 231 223 207 179 151 252 264 136 260
16 13 35 178 159 140 96 107 99 158 158 152 176 160 142 187 161 175 172 141 146 177 164 163 191 170 360 144 151 160 169 199 92 153 224 104 218 230 243 275 46 206 155 258
146 349 14 41 108 132 100 112 126 139 184 145 160 162 171 154 169 166 183 111 112 119 148 23 183 127 21 67 153 126 165 180 194 204 136 151 189 186 214 200 182 233 229 258
177 171 298 45 137 156 56 60 102 152 171 167 162 156 125 144 154 182 149 189 187 150 156 125 150 106 114 41 115 153 153 192 205 255 336 83 167 180 201 215 229 191 244 249
181 169 180 202 138 172 68 17 155 64 133 138 148 165 176 162 145 151 178 161 166 123 138 176 167 132 149 144 113 169 137 187 142 40 92 313 296 235 213 223 238 243 260 268
187 180 168 185 188 145 108 107 90 93 90 145 150 159 149 172 139 324 174 168 121 104 102 95 77 79 81 103 131 139 104 130 86 228 145 89 308 243 192 226 237 222 238 247
204 184 179 177 183 129 140 124 115 90 96 119 119 137 131 151 149 136 163 154 103 122 124 100 75 60 55 61 56 63 110 107 92 163 74 192 244 144 207 229 238 237 257 264
202 198 183 186 181 161 133 133 95 89 95 112 109 117 107 101 114 101 87 70 125 141 100 88 84 45 29 357 230 150 134 112 121 151 187 310 293 203 176 171 249 242 240 257
198 192 184 184 179 180 161 128 101 112 111 325 130 130 142 121 109 66 75 122 143 124 87 102 157 175 162 181 154 52 151 111 136 156 192 213 282 342 349 122 254 357 37 28
202 193 185 183 183 184 174 148 113 93 103 91 138 93 153 141 137 92 120 130 100 108 121 126 160 191 148 162 154 153 151 165 207 210 238 277 189 251 114 140 225 92 43 22
200 198 193 183 185 185 184 149 164 119 82 106 116 120 132 128 127 141 158 105 55 87 133 135 185 132 214 113 157 167 170 174 189 201 225 257 168 126 165 171 125 93 50 29
191 191 189 182 174 168 177 159 155 144 100 135 137 137 166 144 104 134 161 87 134 166 134 179 114 131 150 169 196 331 169 181 171 187 209 149 173 101 312 251 264 228 261 291
191 186 189 184 181 183 184 162 162 153 103 99 143 154 155 142 160 151 128 151 150 131 99 95 71 133 130 159 239 115 286 166 164 93 234 199 230 269 273 277 265 278 273 279
190 179 177 190 187 182 184 182 170 166 126 109 167 174 188 178 152 147 126 147 141 147 114 93 134 156 65 20 163 148 184 135 171 267 276 288 306 356 323 294 283 269 279 282
181 185 181 174 178 176 170 164 175 167 146 120 115 161 196 189 203 196 166 145 155 133 95 85 187 124 107 32 40 252 188 178 171 213 152 132 87 9 349 336 322 304 288 282
183 183 184 176 173 183 168 114 185 183 141 104 109 128 142 181 191 184 183 169 158 140 130 155 171 157 162 146 225 226 209 218 227 163 272 306 299 302 301 307 308 307 302 293
185 183 178 176 181 176 159 178 175 175 188 110 99 104 125 132 138 133 168 183 184 167 154 196 152 183 179 176 241 150 209 220 229 251 274 289 283 269 273 294 304 309 302 288
177 179 173 177 176 172 142 95 150 150 124 140 122 108 107 150 130 122 160 161 157 187 179 188 148 119 145 250 242 247 245 252 260 263 272 275 272 275 283 288 289 287 280 277
174 171 167 170 174 176 167 143 157 163 146 132 138 135 174 164 123 117 161 159 140 174 194 187 153 181 218 235 245 229 233 237 251 259 261 264 268 274 275 273 273 273 273 268
166 161 150 148 145 148 145 146 152 159 184 133 140 128 132 166 146 139 131 177 203 184 210 168 186 238 244 246 240 256 235 243 248 246 250 255 260 264 273 280 281 279 276 272
145 128 101 133 141 139 157 146 148 133 145 174 162 147 137 169 129 158 192 168 191 154 239 154 218 255 256 264 259 263 264 260 259 261 264 267 268 274 275 277 281 281 276 276
140 129 134 135 109 91 133 123 78 111 182 126 124 127 108 126 142 106 143 147 67 242 170 124 252 278 71 88 180 246 240 240 245 254 260 264 268 273 276 279 281 280 281 276
124 121 112 142 129 149 168 126 326 108 154 166 153 106 123 123 145 99 105 130 230 122 133 223 230 121 66 11 341 310 285 277 276 279 279 279 278 276 274 274 273 275 275 275
79 70 88 66 123 115 131 140 149 115 154 155 141 115 131 134 83 152 120 225 82 137 244 230 242 28 356 349 347 333 320 312 303 299 299 299 293 287 282 277 273 271 268 267
96 118 116 99 126 70 54 75 106 122 136 147 115 78 113 221 99 160 88 46 238 195 218 220 145 68 14 351 343 335 332 329 332 324 315 305 294 287 287 281 273 267 260 255
84 70 95 93 65 38 65 74 77 135 139 128 103 118 79 217 154 98 209 142 205 242 207 167 223 291 307 316 325 328 326 321 320 323 318 306 299 295 288 278 268 261 253 248
66 59 102 95 75 90 117 118 146 150 151 137 114 112 201 92 93 222 185 192 209 132 171 314 330 330 329 328 327 323 324 325 322 315 311 309 299 293 289 281 274 265 256 249